Lihue, HI

7:35 PM HST on February 27, 2017 (GMT -1000)
Lihue

Weather History for PHLI - April, 2012

Change the Weather History Date:

Monday, April 30, 2012

  Actual Average Record
Temperature  
Mean Temperature 77 °F 75 °F  
Max Temperature 81 °F 80 °F 86 °F (2016)
Min Temperature 72 °F 69 °F 59 °F (1954)
Degree Days  
Heating Degree Days 0 0  
Month to date heating degree days 0 0  
Since 1 July heating degree days 0 0  
Cooling Degree Days 12 10  
Month to date cooling degree days 305 270  
Year to date cooling degree days 1054 904  
Growing Degree Days 26 (Base 50)    
Moisture  
Dew Point 64 °F    
Average Humidity 69    
Maximum Humidity 79    
Minimum Humidity 58    
Precipitation  
Precipitation T in 0.07 in 0.88 in (1966)
Month to date precipitation 0.37 2.25  
Year to date precipitation 31.75 13.77  
Snow  
Snow 0.00 in - - ()
Month to date snowfall 0.0  
Since 1 July snowfall 0.0  
Snow Depth 0.00 in    
Sea Level Pressure  
Sea Level Pressure 30.13 in    
Wind  
Wind Speed 18 mph (ENE)    
Max Wind Speed 25 mph    
Max Gust Speed 30 mph    
Visibility 10 miles    
Events Rain    
T = Trace of Precipitation, MM = Missing Value Source: NWS Daily Summary

Daily Weather History Graph

Daily Weather History Graph

Search for Another Location

Airport or City:

Trip Planner

Search our weather history database for the weather conditions in past years. The results will help you decide how hot, cold, wet, or windy it might be!

Date:

Astronomy

Apr. 30, 2012 Rise Set
Actual Time 6:05 AM HST 7:03 PM HST
Civil Twilight 5:42 AM HST 7:26 PM HST
Nautical Twilight 5:14 AM HST 7:54 PM HST
Astronomical Twilight 4:46 AM HST 8:22 PM HST
Moon 1:53 PM HST (4/30) 1:52 AM HST (4/30)
Length of Visible Light 13h 44m
Length of Day
12h 57m
Waxing Gibbous, 66% of the Moon is Illuminated
Apr 30
Waxing Gibbous
May 5
Full
May 12
Last Quarter
May 20
New
May 28
First Quarter

Hourly Weather History & Observations

Time (HST) Temp. Heat Index Dew Point Humidity Pressure Visibility Wind Dir Wind Speed Gust Speed Precip Events Conditions
12:53 AM 73.9 °F - 64.9 °F 73% 30.16 in 10.0 mi ENE 17.3 mph - N/A   Clear
1:53 AM 72.0 °F - 64.9 °F 78% 30.14 in 10.0 mi ENE 19.6 mph 24.2 mph 0.00 in   Overcast
2:53 AM 73.9 °F - 64.9 °F 73% 30.13 in 10.0 mi ENE 20.7 mph - N/A   Mostly Cloudy
3:00 AM 73.4 °F - 64.4 °F 73% 30.13 in 10.0 mi ENE 19.6 mph - N/A   Mostly Cloudy
3:37 AM 73.4 °F - 62.6 °F 69% 30.13 in 10.0 mi ENE 18.4 mph - N/A   Overcast
3:53 AM 73.0 °F - 64.0 °F 73% 30.12 in 10.0 mi ENE 15.0 mph - N/A   Overcast
4:19 AM 73.4 °F - 64.4 °F 73% 30.12 in 10.0 mi East 19.6 mph 25.3 mph 0.00 in   Overcast
4:27 AM 73.4 °F - 64.4 °F 73% 30.13 in 10.0 mi ENE 17.3 mph - 0.00 in   Mostly Cloudy
4:53 AM 73.0 °F - 64.0 °F 73% 30.12 in 10.0 mi ENE 18.4 mph 24.2 mph 0.00 in   Scattered Clouds
5:03 AM 73.4 °F - 64.4 °F 73% 30.13 in 10.0 mi East 18.4 mph - N/A   Mostly Cloudy
5:26 AM 73.4 °F - 64.4 °F 73% 30.14 in 10.0 mi ENE 18.4 mph - N/A   Mostly Cloudy
5:53 AM 73.0 °F - 64.9 °F 76% 30.14 in 10.0 mi ENE 17.3 mph - N/A   Scattered Clouds
6:39 AM 71.6 °F - 64.4 °F 78% 30.15 in 7.0 mi East 24.2 mph 29.9 mph 0.00 in Rain Light Rain
6:46 AM 73.4 °F - 62.6 °F 69% 30.15 in 10.0 mi East 21.9 mph 29.9 mph 0.00 in   Mostly Cloudy
6:53 AM 73.0 °F - 64.0 °F 73% 30.14 in 10.0 mi East 24.2 mph 27.6 mph 0.00 in   Mostly Cloudy
7:53 AM 75.9 °F - 64.9 °F 69% 30.16 in 10.0 mi ENE 17.3 mph - N/A   Partly Cloudy
8:53 AM 77.0 °F - 64.0 °F 64% 30.17 in 10.0 mi ENE 19.6 mph - N/A   Partly Cloudy
9:53 AM 78.1 °F - 64.0 °F 62% 30.18 in 10.0 mi ENE 17.3 mph - N/A   Partly Cloudy
10:53 AM 80.1 °F 81.7 °F 64.0 °F 58% 30.18 in 10.0 mi ENE 19.6 mph - N/A   Scattered Clouds
11:53 AM 81.0 °F 82.5 °F 64.0 °F 56% 30.17 in 10.0 mi ENE 16.1 mph - N/A   Partly Cloudy
12:53 PM 79.0 °F - 63.0 °F 58% 30.15 in 10.0 mi ENE 15.0 mph - 0.00 in   Scattered Clouds
1:53 PM 81.0 °F 82.5 °F 64.0 °F 56% 30.13 in 10.0 mi ENE 15.0 mph - N/A   Scattered Clouds
2:53 PM 80.1 °F 81.7 °F 64.0 °F 58% 30.11 in 10.0 mi ENE 18.4 mph - 0.00 in   Scattered Clouds
3:53 PM 79.0 °F - 63.0 °F 58% 30.09 in 10.0 mi NE 17.3 mph - N/A   Scattered Clouds
4:31 PM 75.2 °F - 64.4 °F 69% 30.09 in 10.0 mi NE 17.3 mph - N/A   Overcast
4:44 PM 77.0 °F - 64.4 °F 65% 30.09 in 10.0 mi NE 19.6 mph - N/A   Scattered Clouds
4:53 PM 77.0 °F - 64.0 °F 64% 30.09 in 10.0 mi NE 18.4 mph - N/A   Partly Cloudy
5:53 PM 75.0 °F - 64.0 °F 69% 30.09 in 10.0 mi NE 19.6 mph - N/A   Scattered Clouds
6:53 PM 73.9 °F - 64.9 °F 73% 30.12 in 10.0 mi NE 17.3 mph - N/A   Mostly Cloudy
7:53 PM 73.9 °F - 64.0 °F 71% 30.12 in 10.0 mi ENE 20.7 mph - N/A   Scattered Clouds
8:53 PM 73.0 °F - 64.9 °F 76% 30.14 in 10.0 mi ENE 16.1 mph - N/A   Mostly Cloudy
9:53 PM 73.9 °F - 64.0 °F 71% 30.15 in 9.0 mi ENE 25.3 mph 33.4 mph N/A   Scattered Clouds
10:53 PM 73.0 °F - 64.9 °F 76% 30.16 in 10.0 mi NE 15.0 mph - 0.00 in   Partly Cloudy
11:53 PM 73.9 °F - 66.0 °F 76% 30.15 in 10.0 mi ENE 13.8 mph 23.0 mph 0.00 in   Mostly Cloudy